Regional Weather Roundup
Issued by NWS

Home | Current Version | Previous Version | Graphics & Text | Print | Product List | Glossary On
Versions: 1 2 3 4 5 6 7 8 9 10 11 12 13 14 15 16 17 18 19 20 21 22 23 24 25 26 27 28 29 30 31 32 33 34 35 36 37 38 39 40 41 42 43 44 45 46 47 48 49 50
000
ASUS43 KIND 050509
RWRIN

WEATHER ROUNDUP FOR INDIANA
NATIONAL WEATHER SERVICE INDIANAPOLIS IN
100 AM EDT SAT SEP 05 2015

NOTE: "FAIR" INDICATES FEW OR NO CLOUDS BELOW 12,000 FEET WITH NO
SIGNIFICANT WEATHER AND/OR OBSTRUCTIONS TO VISIBILITY.

* - STATION DOES NOT REPORT WEATHER SUCH AS PRECIPITATION OR FOG.

+ - STATION NOT QUALITY CONTROLLED BY THE NATIONAL WEATHER SERVICE.
    USE DATA WITH CAUTION...ESPECIALLY DEWPOINT AND RELATIVE
    HUMIDITY OBSERVATIONS.

INZ001>003-010>013-019-020-050600-
NORTHWEST INDIANA

CITY           SKY/WX    TMP DP  RH WIND       PRES   REMARKS
GARY /AIRPORT/ CLEAR     70  67  90 CALM      30.06F FOG
KNOX *+        CLEAR     66  66 100 S3        30.07S
LA PORTE +     PTCLDY   N/A N/A N/A CALM      30.08S
MICHIGAN CITY+ CLEAR     68  68 100 CALM      30.07F FOG
MONTICELLO +   MOCLDY    70  67  90 S3        30.06F
RENSSELAER +   CLEAR     68  68 100 CALM      30.06F
VALPARAISO     CLEAR     70  68  93 CALM      30.08S

$$

LMZ046-743>745-050600-
SOUTHERN LAKE MICHIGAN

STATION/POSITION TIME  TEMP    WIND        PRES    WAVE
                       AIR SEA DIR/SP/G            HT
                 (UTC) (F)     (DEG/KT/KT) (MB)    (FT)
MICHIGAN CITY    0400   71     130/  5/  7   N/A
5NW MICH CITY    0500   72 74  140/  4/  4   N/A     1

$$

INZ004-005-014>016-021>024-050600-
NORTH CENTRAL INDIANA

CITY           SKY/WX    TMP DP  RH WIND       PRES   REMARKS
GOSHEN         MOCLDY    70  66  87 S6        30.09R
LOGANSPORT +   PTCLDY    64  61  88 CALM      30.09S
PERU/GRISSOM   MOCLDY    68  65  90 SE5       30.08F
ROCHESTER +    MOCLDY    70  68  94 CALM      30.09S
SOUTH BEND     MOCLDY    70  68  93 CALM      30.08S
WARSAW +       CLOUDY    68  64  88 S3        30.09S

$$

INZ006>009-017-018-025>027-050600-
NORTHEAST INDIANA

CITY           SKY/WX    TMP DP  RH WIND       PRES   REMARKS
ANGOLA *+      CLOUDY    70  61  73 CALM      30.09S
AUBURN +       CLOUDY    68  64  88 CALM      30.10F
FORT WAYNE     MOCLDY    68  63  84 SW6       30.11R
HUNTINGTON +   MOCLDY    66  62  85 CALM      30.10S

$$

INZ028-029-035-036-043>045-051>053-050600-
WEST CENTRAL INDIANA

CITY           SKY/WX    TMP DP  RH WIND       PRES   REMARKS
CRAWFORDSVL +  PTCLDY    63  63 100 CALM      30.08S
GREENCASTLE +  CLOUDY    68  63  83 CALM      30.09F
LAFAYETTE      CLEAR     67  63  87 CALM      30.07S
TERRE HAUTE    CLOUDY    71  66  84 NE6       30.07S

$$

INZ030>032-037>040-046>048-054>057-064-065-050600-
CENTRAL INDIANA

CITY           SKY/WX    TMP DP  RH WIND       PRES   REMARKS
FISHERS *+     MOCLDY    66  66 100 CALM      30.09S
FRANKFORT +    PTCLDY   N/A N/A N/A CALM      30.11R HAZE
GREENWOOD *+   MOCLDY    70  63  78 SE3       30.10S
INDIANAPOLIS   PTCLDY    71  64  78 S6        30.09R
-EAGLE CREEK   PTCLDY    70  66  87 CALM      30.09S
KOKOMO *+      MOCLDY    66  63  88 E5        30.09F
MARION +       MOCLDY    65  59  81 CALM      30.11F
MT COMFORT *+  MOCLDY    66 N/A N/A CALM      30.11R
SHELBYVILLE    CLOUDY    70  65  84 CALM      30.09S
ZIONSVILLE +   FAIR      66  62  87 CALM      30.11R

$$

INZ033-034-041-042-049-050-058-059-050600-
EAST CENTRAL INDIANA

CITY           SKY/WX    TMP DP  RH WIND       PRES   REMARKS
MUNCIE         CLOUDY    67  63  87 CALM      30.11R

$$

INZ060-061-067>069-081>083-085>088-050600-
SOUTHWEST INDIANA

CITY           SKY/WX    TMP DP  RH WIND       PRES   REMARKS
EVANSVILLE     MOCLDY    75  70  84 CALM      30.06S HAZE
HUNTINGBURG *+ PTCLDY    73  66  78 E7        30.07F
WASHINGTON +   PTCLDY    74  68  81 S3        30.06F

$$

INZ062-063-066-070>080-084-089>092-050600-
SOUTH CENTRAL AND SOUTHEAST INDIANA

CITY           SKY/WX    TMP DP  RH WIND       PRES   REMARKS
BLOOMINGTON    CLOUDY    75  65  70 SE6       30.08S
MADISON *+     MOCLDY    68  64  88 E6        30.11F
NORTH VERNON + CLOUDY    70  70 100 CALM      30.10R
SEYMOUR +      CLOUDY    70  66  88 CALM      30.09R

$$



USA.gov is the U.S. government's official web portal to all federal, state and local government web resources and services.